Wind_Speed
5 4 4 4 4 4 5 5 5 5 5 5 5 5 4 4 4 4 5 5 5 5 5 5 6 6 7 8 8 8 7 7 7 6 6 5 5 5 5 5 5 5 5 5 5 5 6 6 6
5 5 5 5 5 5 6 6 6 6 6 5 5 5 5 5 4 4 5 5 5 6 6 6 7 7 7 9 8 8 8 8 8 7 7 6 6 6 6 6 6 6 5 5 6 6 6 6 6
6 6 6 6 6 6 7 7 7 7 6 6 6 6 5 5 5 4 5 5 5 6 6 6 7 7 8 8 7 8 7 8 8 8 8 8 7 7 7 6 6 6 6 6 6 6 6 6 6
6 6 6 6 7 7 7 7 7 7 6 6 6 5 5 5 5 5 5 5 5 6 6 6 7 7 7 6 6 6 6 7 8 8 8 8 7 7 7 7 7 7 7 7 6 6 5 6 6
7 7 7 8 8 7 8 8 7 7 6 6 6 6 6 6 5 5 5 5 5 6 6 6 6 7 7 6 5 5 5 7 7 8 8 7 7 7 7 8 8 8 7 7 7 7 7 6 7
7 7 7 8 8 9 8 8 8 8 7 7 7 7 7 7 6 5 5 5 5 6 6 7 7 7 7 7 7 6 6 6 6 6 7 7 7 7 7 8 8 8 9 8 8 8 8 8 7
7 7 7 7 8 8 8 8 8 8 8 7 7 7 7 7 7 6 6 6 6 6 6 7 7 7 7 7 7 6 6 6 6 7 7 7 7 7 8 8 9 9 9 9 9 9 9 9 9
7 7 7 7 7 8 8 8 8 8 8 8 8 9 8 8 7 7 7 7 7 7 7 8 7 8 8 8 8 7 7 7 8 8 8 8 8 8 8 8 9 9 9 9 10 9 9 9 9
7 7 7 7 8 8 8 8 8 9 9 8 9 9 9 9 9 8 8 8 8 9 9 9 8 9 9 8 8 8 8 9 9 9 9 9 9 9 9 9 9 9 9 9 9 9 9 9 9
7 7 7 8 8 9 9 9 8 9 9 9 9 9 10 9 9 9 9 9 9 9 10 9 9 9 9 9 8 8 9 10 10 9 10 10 10 10 10 10 10 10 10 10 9 9 9 9 10
7 8 8 8 8 9 9 9 9 9 9 9 9 10 10 10 9 10 10 10 10 10 10 10 10 10 9 9 9 9 9 10 10 10 10 10 10 10 10 10 10 10 11 11 10 11 10 10 10
8 8 9 9 9 9 10 10 10 10 10 10 10 10 10 10 9 10 10 10 10 10 11 11 11 11 11 10 10 10 10 9 9 9 10 10 11 10 10 10 10 11 11 11 11 11 11 11 10
8 9 9 10 10 10 10 11 11 11 11 11 11 10 10 10 10 10 10 10 10 10 11 12 11 12 12 12 11 11 11 10 10 10 10 10 11 11 10 11 11 11 11 12 12 12 11 11 11
8 9 9 10 11 11 11 11 11 11 11 11 11 11 11 11 11 11 11 11 11 11 11 12 12 13 13 13 12 12 11 11 11 11 10 10 10 11 10 10 10 11 11 11 11 12 12 12 11
9 9 9 10 11 12 11 11 11 11 11 11 11 12 12 12 12 12 11 11 11 12 12 12 12 13 14 14 14 13 12 12 12 11 11 11 10 10 10 10 10 10 10 11 11 12 12 12 12
9 9 10 10 11 11 11 12 12 12 12 12 12 12 12 12 13 13 12 12 12 12 13 13 13 14 14 14 15 14 13 13 12 12 12 11 11 11 11 11 11 11 11 11 11 12 12 12 11
8 9 9 10 10 11 11 11 12 12 12 12 12 12 13 13 13 13 13 12 12 13 14 14 14 14 14 14 14 14 14 14 13 13 13 12 12 12 13 13 12 12 11 11 12 12 12 12 12
8 8 9 10 9 10 10 11 12 12 12 13 13 13 13 13 13 13 13 13 12 12 13 13 12 13 13 13 13 13 14 14 14 14 15 15 14 14 14 14 14 13 13 13 13 13 13 13 14
8 9 9 10 10 10 10 11 11 12 12 13 13 13 14 14 14 14 13 13 13 13 13 13 13 12 13 13 13 13 13 15 15 15 16 16 16 15 15 15 15 14 14 14 14 14 14 14 14
8 8 9 9 9 10 10 11 11 12 12 12 12 13 13 14 14 14 14 14 14 14 14 13 13 13 14 14 14 13 14 15 15 16 16 16 16 15 15 15 16 16 16 15 15 16 16 16 15
8 9 10 10 10 10 11 10 11 11 11 12 12 12 12 13 14 14 14 13 13 14 14 13 13 14 14 14 14 15 15 15 16 16 16 16 15 15 15 15 15 16 17 17 17 17 17 16 16
8 9 10 11 11 11 11 11 11 11 11 11 12 12 11 11 12 13 12 13 13 13 13 13 14 14 14 15 15 16 16 16 16 16 16 16 16 15 15 15 15 16 17 18 17 17 17 17 16
9 10 10 11 11 11 11 12 11 11 11 11 12 11 10 10 11 11 12 12 13 13 13 14 15 15 16 16 16 17 17 17 17 17 17 17 17 16 16 16 16 17 18 18 18 17 17 17 16
10 10 11 11 11 11 10 11 11 10 10 11 11 10 11 11 11 11 12 12 13 13 14 14 15 15 16 16 17 17 17 17 17 17 18 18 18 17 17 17 18 17 18 18 18 18 18 17 17
10 10 11 11 10 10 10 10 10 10 10 10 10 10 11 12 12 12 13 13 13 14 14 14 14 15 16 16 16 17 18 18 17 18 18 19 19 18 17 18 18 18 18 18 18 18 18 18 17
10 10 10 11 10 10 10 9 10 10 10 11 11 11 12 12 13 13 13 13 14 14 14 15 15 15 16 16 16 17 18 18 18 18 19 19 19 18 18 18 19 19 19 18 18 19 19 19 18
11 10 11 11 10 10 10 10 10 10 10 11 11 11 12 13 14 14 13 14 14 14 15 15 16 16 17 17 17 18 18 18 18 19 19 19 19 18 19 19 20 20 19 18 18 18 19 19 19
11 11 11 11 10 10 10 11 11 11 11 11 11 12 12 13 13 14 14 14 14 15 16 16 16 17 17 18 18 18 18 19 19 18 18 18 18 18 19 19 19 19 19 19 19 19 19 19 19
12 12 12 12 12 11 11 12 11 11 12 12 12 13 13 13 14 15 16 15 15 15 16 16 17 17 17 18 18 18 19 19 19 18 18 18 17 17 18 18 19 19 19 19 19 20 20 19 19
12 12 13 13 13 13 13 13 12 12 13 13 14 14 14 15 15 15 16 16 17 16 16 16 17 18 18 19 19 19 19 19 19 19 18 18 18 17 18 19 19 19 20 20 20 21 21 20 20
Wind_Direction
250 254 256 259 261 263 264 268 268 270 269 267 265 257 252 256 254 254 248 245 245 245 251 261 274 283 284 280 278 274 267 260 253 253 255 250 253 255 253 253 255 252 253 257 258 258 258 250 249
250 252 256 259 262 266 267 265 262 264 261 262 264 262 259 266 266 259 252 247 248 248 255 266 277 283 283 284 281 272 262 256 252 252 253 254 258 260 255 255 253 251 252 255 255 256 257 253 249
251 254 257 259 263 264 266 262 261 260 259 257 259 259 253 263 270 267 263 255 249 251 257 270 279 282 285 287 282 269 263 259 257 254 252 253 251 256 258 258 255 252 252 256 255 259 255 253 250
254 254 256 261 265 266 266 262 259 254 255 257 261 259 247 254 264 268 265 258 252 252 260 273 280 283 286 288 284 272 265 258 257 252 249 249 252 255 256 255 256 255 251 251 254 258 253 249 250
256 256 259 261 266 269 268 262 255 250 252 259 263 263 256 253 257 259 261 258 259 260 266 272 280 284 287 288 279 270 266 264 260 257 250 251 256 259 256 252 253 253 252 251 251 256 253 253 250
259 258 260 262 264 265 265 258 254 253 257 262 266 265 261 257 256 259 261 265 267 268 273 274 273 277 282 284 278 269 265 267 264 258 253 261 261 261 259 255 254 255 254 254 254 258 256 252 253
260 259 260 262 262 262 262 257 255 257 256 257 258 261 264 259 258 264 266 270 270 270 274 275 274 273 280 282 278 272 271 269 264 260 263 264 267 262 258 260 261 260 258 257 256 258 258 255 254
259 259 260 260 260 261 260 256 253 255 255 256 256 261 267 268 267 265 267 268 267 265 268 271 273 276 279 279 273 267 265 265 262 260 262 264 265 263 263 265 266 262 259 257 257 255 255 255 254
261 259 257 256 258 260 261 260 256 258 261 261 262 264 266 268 270 268 267 265 266 265 267 270 271 275 277 275 274 276 272 267 263 261 265 266 264 264 267 266 267 266 262 258 255 252 253 253 255
261 260 257 256 259 262 262 263 262 262 264 264 264 265 267 268 267 268 267 265 264 265 267 271 271 272 273 273 277 279 278 272 265 263 265 267 268 266 269 269 267 267 262 259 257 254 255 257 258
261 260 259 258 259 262 262 263 263 264 264 263 264 266 269 268 265 265 266 264 265 265 267 268 268 269 270 271 276 278 278 275 270 270 268 267 265 268 269 268 267 266 261 261 260 257 258 259 259
262 261 260 258 258 261 263 263 261 263 265 265 265 268 268 266 266 265 264 264 264 264 265 268 269 267 268 270 273 273 274 274 272 273 270 265 264 267 266 263 262 260 259 258 258 256 257 257 256
260 262 262 261 261 263 264 263 261 262 265 267 266 264 263 264 265 266 264 263 263 264 265 267 267 267 267 267 268 270 270 271 272 272 270 269 267 266 264 263 261 260 259 256 255 253 252 252 252
261 262 265 264 265 266 267 266 263 262 264 266 266 264 266 266 266 265 263 263 264 264 266 268 266 266 266 266 267 268 270 269 267 268 268 267 265 265 266 263 261 260 258 256 254 253 251 251 251
262 263 265 266 265 266 266 266 264 264 265 267 267 266 266 266 267 267 265 266 269 267 269 271 271 270 268 268 268 267 268 268 266 265 266 266 264 265 263 260 258 256 256 256 254 253 252 253 253
264 265 268 269 268 266 264 265 267 267 267 267 267 266 264 264 266 267 266 269 270 270 271 274 274 271 269 266 266 266 267 267 266 266 269 268 264 262 265 263 259 256 254 254 254 253 254 253 255
271 272 271 271 268 266 265 265 267 267 267 266 266 265 265 265 267 268 269 272 273 272 271 274 274 271 271 270 269 265 265 265 266 266 267 265 266 267 268 267 263 259 257 256 257 256 256 256 256
278 275 272 271 272 269 268 267 268 266 264 264 265 267 267 268 269 268 271 271 271 272 272 273 277 274 270 273 277 273 268 266 266 268 269 268 269 269 269 269 266 264 261 259 258 257 256 256 256
277 277 276 274 276 271 269 270 270 268 265 264 266 266 265 266 269 270 269 270 268 271 274 273 274 274 272 272 277 276 273 268 269 271 272 271 272 270 267 265 264 263 262 259 256 256 257 255 256
281 280 282 282 280 276 273 273 272 272 270 268 265 264 265 266 266 267 268 267 269 271 272 273 271 271 272 274 276 278 277 275 273 273 273 273 273 269 265 264 261 261 261 259 257 256 257 257 257
283 282 283 284 283 281 279 275 274 275 274 269 266 265 267 270 267 265 265 268 271 273 273 272 273 274 276 275 274 276 280 277 276 275 273 273 274 270 265 262 261 260 259 257 256 256 256 255 254
286 285 283 283 283 283 282 279 275 274 275 272 269 272 273 273 271 267 267 270 271 273 272 272 271 273 277 277 275 277 279 280 277 275 273 272 272 269 265 265 263 262 259 256 254 254 253 253 254
285 286 286 284 283 283 282 279 278 275 275 274 273 274 274 273 272 270 270 273 275 275 274 273 271 272 273 274 275 275 275 277 277 276 275 273 271 268 265 266 264 262 260 257 255 254 253 254 255
284 284 285 284 283 281 283 280 277 278 280 276 274 274 270 269 270 271 273 276 280 280 278 274 273 274 274 273 274 274 274 275 277 275 277 276 272 267 266 266 266 262 258 255 255 256 257 255 255
282 282 285 287 287 283 279 274 277 279 280 277 277 276 271 270 269 272 276 277 279 280 279 278 278 278 277 275 274 275 273 274 276 275 276 277 276 273 268 267 266 262 258 256 255 255 256 255 254
282 279 278 279 280 280 277 276 280 281 281 281 280 277 274 274 272 273 273 275 278 279 279 280 282 282 280 278 277 277 276 275 278 276 276 276 275 272 267 266 265 263 259 256 256 256 254 253 255
281 279 278 275 275 277 280 279 280 279 278 279 279 277 275 276 274 272 275 277 277 278 279 281 283 284 282 279 278 279 280 280 281 279 280 275 271 268 266 265 263 262 259 257 256 257 256 255 255
277 278 277 276 275 278 280 282 281 280 279 280 280 279 277 276 274 276 279 281 281 279 281 282 284 285 284 282 279 278 279 281 280 279 279 277 273 267 265 267 264 264 262 258 257 258 258 256 254
273 273 273 273 273 273 277 279 278 278 279 281 283 284 283 282 280 280 280 281 283 282 282 282 284 285 284 282 280 278 278 280 281 280 278 276 274 271 268 264 263 264 263 261 259 259 257 254 253
272 270 271 270 273 274 275 276 278 278 280 283 285 286 287 289 288 284 282 282 282 283 285 284 285 284 283 282 281 281 281 281 281 280 278 275 275 273 270 265 265 264 264 263 261 257 255 255 255
Height
5879 5879 5879 5880 5881 5881 5880 5881 5880 5880 5880 5879 5879 5879 5879 5879 5880 5882 5879 5877 5877 5877 5877 5876 5876 5876 5875 5873 5872 5871 5871 5871 5871 5872 5872 5872 5872 5872 5871 5872 5872 5871 5871 5871 5870 5870 5869 5869 5869
5877 5878 5879 5880 5880 5880 5880 5879 5879 5879 5879 5878 5878 5877 5877 5877 5877 5877 5876 5876 5876 5875 5875 5875 5875 5874 5873 5870 5868 5867 5867 5868 5869 5870 5870 5870 5870 5870 5870 5870 5870 5870 5869 5869 5869 5869 5868 5868 5868
5876 5876 5878 5878 5878 5878 5878 5877 5877 5877 5877 5877 5876 5876 5876 5876 5876 5875 5875 5874 5874 5874 5874 5874 5873 5872 5871 5868 5865 5863 5864 5866 5867 5868 5868 5868 5869 5869 5869 5868 5868 5868 5868 5868 5868 5868 5867 5867 5867
5875 5875 5876 5877 5876 5876 5876 5876 5875 5875 5875 5875 5875 5875 5874 5875 5874 5874 5873 5873 5873 5873 5873 5872 5872 5871 5870 5868 5865 5863 5863 5864 5864 5865 5866 5866 5867 5867 5867 5867 5867 5867 5867 5867 5866 5866 5866 5866 5865
5873 5874 5874 5874 5874 5874 5874 5874 5874 5874 5873 5874 5874 5874 5873 5873 5873 5872 5872 5872 5872 5872 5872 5871 5870 5870 5869 5868 5866 5864 5863 5863 5862 5862 5863 5865 5865 5865 5865 5865 5865 5865 5865 5865 5865 5865 5865 5864 5864
5872 5872 5873 5873 5872 5872 5872 5872 5872 5872 5872 5872 5872 5872 5871 5871 5871 5871 5871 5871 5871 5871 5870 5870 5869 5869 5868 5867 5866 5865 5864 5862 5861 5861 5863 5863 5864 5864 5864 5864 5864 5863 5863 5863 5863 5863 5863 5863 5863
5870 5870 5870 5871 5871 5870 5870 5870 5870 5870 5870 5870 5870 5870 5870 5869 5869 5869 5869 5869 5869 5869 5868 5868 5868 5867 5867 5866 5865 5864 5864 5863 5862 5862 5862 5862 5862 5862 5862 5862 5862 5862 5862 5862 5862 5861 5861 5861 5861
5867 5869 5868 5869 5869 5869 5869 5868 5868 5868 5868 5868 5868 5868 5868 5868 5868 5868 5868 5867 5867 5867 5867 5866 5866 5865 5865 5864 5864 5863 5862 5862 5861 5861 5861 5861 5861 5860 5860 5860 5860 5860 5860 5860 5860 5860 5859 5859 5859
5865 5867 5866 5867 5866 5866 5866 5866 5866 5866 5866 5866 5866 5866 5866 5866 5866 5866 5866 5866 5865 5865 5865 5864 5864 5863 5863 5862 5862 5861 5861 5860 5860 5860 5859 5859 5859 5858 5858 5858 5858 5858 5858 5858 5858 5858 5858 5857 5857
5864 5864 5864 5864 5864 5864 5864 5864 5864 5864 5864 5864 5864 5864 5864 5864 5864 5863 5863 5863 5863 5863 5863 5862 5862 5861 5861 5860 5860 5860 5859 5859 5858 5858 5858 5857 5857 5856 5856 5856 5856 5856 5856 5855 5856 5856 5856 5855 5855
5861 5862 5862 5862 5862 5862 5862 5862 5862 5862 5862 5862 5862 5862 5862 5862 5861 5861 5861 5861 5861 5861 5861 5860 5860 5859 5859 5859 5858 5858 5857 5857 5856 5856 5855 5855 5855 5854 5854 5854 5854 5854 5853 5853 5853 5853 5853 5853 5853
5859 5859 5859 5859 5859 5859 5859 5860 5860 5860 5860 5860 5860 5860 5860 5860 5859 5859 5859 5859 5859 5859 5858 5858 5858 5857 5857 5857 5856 5856 5855 5855 5854 5854 5853 5853 5852 5852 5852 5851 5851 5851 5851 5851 5851 5851 5851 5851 5851
5857 5857 5857 5857 5857 5857 5857 5857 5857 5857 5857 5857 5857 5857 5857 5857 5857 5857 5857 5856 5856 5856 5856 5855 5855 5855 5855 5854 5854 5853 5853 5853 5852 5852 5851 5850 5850 5850 5849 5849 5849 5848 5848 5848 5849 5849 5849 5849 5849
5854 5854 5854 5854 5854 5854 5855 5855 5855 5855 5855 5855 5855 5855 5855 5855 5854 5854 5854 5854 5854 5854 5853 5853 5852 5852 5852 5852 5851 5851 5850 5850 5850 5849 5849 5848 5848 5847 5847 5847 5846 5846 5846 5846 5846 5846 5846 5847 5847
5851 5852 5852 5852 5852 5852 5852 5852 5852 5852 5852 5852 5852 5852 5852 5852 5852 5851 5851 5851 5851 5851 5851 5850 5850 5849 5849 5849 5848 5848 5847 5847 5847 5846 5846 5845 5845 5844 5844 5844 5844 5843 5843 5843 5843 5843 5844 5844 5844
5849 5850 5850 5850 5849 5849 5851 5850 5849 5849 5849 5850 5850 5849 5849 5849 5849 5848 5848 5848 5848 5848 5848 5847 5847 5847 5846 5846 5845 5845 5844 5844 5844 5843 5843 5842 5842 5842 5841 5841 5841 5841 5841 5841 5841 5841 5841 5841 5842
5847 5847 5847 5847 5847 5846 5847 5847 5846 5846 5846 5846 5846 5846 5846 5846 5846 5846 5845 5845 5845 5845 5845 5844 5844 5843 5843 5842 5842 5841 5841 5841 5841 5840 5840 5839 5839 5839 5838 5838 5838 5838 5838 5838 5838 5838 5838 5839 5839
5845 5845 5844 5844 5844 5844 5844 5843 5843 5843 5843 5843 5843 5843 5843 5843 5842 5842 5842 5842 5842 5842 5842 5841 5841 5840 5840 5839 5839 5838 5838 5838 5837 5837 5836 5836 5836 5835 5835 5835 5835 5834 5835 5835 5835 5835 5836 5836 5836
5842 5842 5842 5842 5841 5841 5841 5840 5840 5840 5840 5840 5840 5840 5840 5839 5839 5839 5839 5839 5839 5839 5839 5838 5838 5837 5837 5837 5836 5835 5834 5834 5833 5833 5832 5832 5831 5831 5830 5830 5831 5831 5831 5831 5832 5832 5832 5833 5833
5840 5840 5839 5839 5838 5838 5837 5837 5837 5836 5836 5836 5836 5836 5836 5836 5836 5836 5836 5836 5836 5836 5836 5835 5835 5834 5834 5833 5833 5832 5831 5831 5830 5829 5828 5827 5827 5826 5826 5826 5826 5827 5827 5828 5828 5829 5829 5829 5830
5837 5837 5837 5836 5835 5835 5835 5835 5834 5834 5833 5833 5833 5833 5832 5832 5832 5832 5832 5832 5832 5832 5832 5832 5831 5831 5830 5830 5829 5829 5828 5827 5826 5825 5824 5823 5822 5822 5821 5821 5822 5822 5823 5824 5824 5825 5825 5826 5826
5835 5834 5834 5833 5833 5832 5832 5832 5831 5830 5830 5830 5829 5829 5829 5829 5829 5829 5829 5829 5829 5829 5828 5828 5827 5827 5827 5826 5826 5825 5824 5823 5822 5821 5820 5819 5818 5817 5817 5817 5817 5818 5818 5819 5820 5820 5821 5822 5822
5832 5831 5831 5830 5829 5829 5829 5828 5829 5827 5827 5827 5826 5826 5826 5826 5826 5826 5826 5825 5825 5825 5824 5824 5823 5823 5822 5822 5821 5821 5820 5819 5818 5817 5815 5815 5814 5813 5813 5813 5813 5813 5814 5815 5815 5816 5817 5817 5818
5828 5828 5828 5827 5827 5827 5826 5826 5825 5824 5824 5823 5823 5823 5823 5822 5822 5822 5822 5822 5822 5821 5821 5820 5819 5819 5818 5818 5817 5816 5815 5814 5813 5812 5811 5810 5809 5809 5809 5809 5809 5809 5809 5810 5811 5811 5812 5813 5814
5826 5826 5825 5824 5824 5824 5823 5822 5823 5821 5820 5820 5820 5819 5819 5819 5819 5819 5819 5819 5818 5818 5817 5816 5816 5815 5814 5813 5812 5812 5811 5810 5809 5807 5806 5805 5804 5804 5804 5804 5804 5804 5805 5805 5806 5807 5808 5808 5809
5822 5823 5823 5823 5822 5821 5819 5819 5819 5818 5817 5817 5816 5816 5816 5815 5815 5815 5815 5815 5815 5814 5813 5813 5812 5811 5810 5809 5808 5807 5806 5805 5804 5803 5802 5801 5800 5799 5799 5799 5799 5799 5800 5800 5801 5802 5802 5803 5804
5819 5819 5819 5819 5818 5817 5817 5816 5816 5814 5814 5813 5813 5813 5812 5812 5812 5811 5811 5811 5811 5810 5809 5808 5808 5807 5806 5805 5804 5803 5802 5801 5799 5798 5797 5796 5795 5794 5794 5794 5794 5794 5795 5795 5796 5797 5797 5798 5799
5816 5816 5815 5815 5814 5814 5814 5813 5813 5811 5811 5810 5810 5809 5809 5808 5808 5807 5807 5807 5806 5806 5805 5804 5803 5802 5801 5800 5799 5798 5797 5796 5795 5793 5792 5791 5790 5789 5789 5789 5789 5789 5789 5790 5791 5792 5792 5793 5794
5812 5812 5811 5811 5811 5811 5811 5812 5809 5808 5807 5807 5806 5806 5805 5804 5804 5803 5803 5802 5802 5801 5800 5799 5799 5798 5796 5795 5794 5792 5791 5791 5789 5788 5787 5786 5785 5785 5784 5784 5784 5784 5785 5785 5786 5786 5787 5788 5789
5808 5808 5808 5808 5808 5807 5807 5809 5805 5804 5804 5803 5802 5802 5801 5800 5800 5799 5798 5798 5797 5796 5795 5794 5793 5792 5791 5790 5788 5787 5786 5785 5784 5783 5782 5781 5780 5780 5780 5779 5779 5780 5780 5780 5780 5781 5782 5783 5783